Location: Unspecified
(42.3650°N, 71.1030°W)
Time: 17:12:21
(UTC+00:00)

Transit 4A - Pass Details

Date: 26 June 2024
Orbit: 870 x 973 km, 66.8° (Epoch: 17 July)

Event Time Altitude Azimuth Distance (km) Brightness Sun altitude
Rises 03:46:31 0° 253° (WSW) 3,458 10.9 -22.8°
Reaches altitude 10° 03:49:36 10° 269° (W) 2,518 10.3 -23.0°
Maximum altitude 03:53:57 21° 318° (NW) 1,840 10.1 -23.1°
Drops below altitude 10° 03:58:21 10° 7° (N) 2,530 11.1 -23.3°
Sets 04:01:29 0° 23° (NNE) 3,480 11.8 -23.4°
